www.pogodaiklimat.ru
ПОГОДА в Крушеваце
Время
(UTC), дата
01 30.05
02 30.05
03 30.05
05 30.05
04 30.05
06 30.05
07 30.05
08 30.05
09 30.05
11 30.05
10 30.05
12 30.05
13 30.05
14 30.05
15 30.05
17 30.05
16 30.05
18 30.05
19 30.05
20 30.05
21 30.05
23 30.05
22 30.05
00 31.05
01 31.05
02 31.05
03 31.05
05 31.05
04 31.05
06 31.05
07 31.05
08 31.05
09 31.05
11 31.05
10 31.05
12 31.05
13 31.05
14 31.05
15 31.05
17 31.05
16 31.05
18 31.05
19 31.05
20 31.05
21 31.05
23 31.05
22 31.05
00 1.06
01 1.06
02 1.06
03 1.06
05 1.06
04 1.06
06 1.06
07 1.06
08 1.06
09 1.06
11 1.06
10 1.06
12 1.06
13 1.06
14 1.06
15 1.06
17 1.06
16 1.06
18 1.06
19 1.06
20 1.06
21 1.06
23 1.06
22 1.06
00 2.06
01 2.06
02 2.06
03 2.06
05 2.06
04 2.06
06 2.06
07 2.06
08 2.06
09 2.06
11 2.06
10 2.06
12 2.06
13 2.06
14 2.06
15 2.06
17 2.06
16 2.06
18 2.06
19 2.06
20 2.06
21 2.06
23 2.06
22 2.06
00 3.06
06 3.06
07 3.06
08 3.06
09 3.06
11 3.06
10 3.06
12 3.06
13 3.06
14 3.06
15 3.06
17 3.06
16 3.06
18 3.06
19 3.06
20 3.06
21 3.06
23 3.06
22 3.06
00 4.06
01 4.06
02 4.06
03 4.06
04 4.06
06 4.06
07 4.06
08 4.06
09 4.06
10 4.06
11 4.06
12 4.06
13 4.06
14 4.06
15 4.06
16 4.06
17 4.06
18 4.06
06 5.06
07 5.06
08 5.06
09 5.06
10 5.06
11 5.06
12 5.06
13 5.06
14 5.06
15 5.06
16 5.06
17 5.06
18 5.06
19 5.06
20 5.06
21 5.06
22 5.06
23 5.06
00 6.06
Ветер
(напр.,м/с)
Видим. Явления Облачность Т
(С)
Тd
(С)
f
(%)
Тe
(С)
Тes
(С)
Комфортность P
(гПа)
Po
(гПа)
Тmin
(С)
Tmax
(С)
R
(мм)
R24
(мм)
S
(см)
Ю 2 н/о н/о +11.2 +11.2 100 +10 +10 1017.7 997.7
штиль 0 н/о н/о +10.8 +10.8 100 +10 +10 1017.2 997.2
Ю 1 н/о н/о +9.9 +9.9 100 +9 +9 1017.3 997.2
штиль 0 н/о н/о +12.2 +12.2 100 +11 +11 1017.5 997.6
штиль 0 н/о н/о +10.9 +10.9 100 +10 +10 1017.6 997.5
З 2 20 км 9/9 1000 м
[Cu Sc]
+12.6 +12.0 96 +12 +12 1017.4 997.4 +9.2 0.7
Ю 2 20 км слаб. дождь 10/10 1000 м
[Cu Sc]
+13.1 +12.4 96 +12 +12 1017.4 997.4
З 2 20 км в посл. час дождь 9/9 1000 м
[Cu Sc]
+15.0 +12.5 85 +15 +16 1017.2 997.3
З 2 20 км 5/5 1000 м
[Cu med, cong]
+17.0 +12.8 76 +17 +26 1016.8 997.0
С 2 20 км 6/6 1000 м
[Cu Sc]
+19.1 +12.1 64 +21 +28 комфорт 1015.2 995.5
З 3 20 км 5/5 1000 м
[Cu med, cong]
+18.5 +12.1 66 +19 +27 1015.7 996.1
СВ 4 20 км гроза без осадков 5/5 1000 м
[Cb calv]
+17.1 +13.4 79 +17 +23 1015.0 995.3
С 2 20 км в посл. час дождь {гроза} 6/6 1000 м
[Cu Sc]
+15.1 +12.8 86 +15 +21 1015.6 995.7
СВ 4 20 км 9/9 1000 м
[Cu Sc]
+15.6 +12.8 83 +15 +15 1015.0 995.2
СЗ 2 20 км 4/4 1000 м
[Cu med, cong]
+17.7 +12.1 70 +18 +22 1014.7 995.0
З 3 10 км слаб. ливневой дождь 10/10 1000 м
[Cu Sc]
+14.6 +11.7 83 +14 +14 1015.8 995.9
СЗ 1 20 км 9/9 1000 м
[Cu Sc]
+16.7 +12.1 74 +18 +18 1014.8 995.1
СВ 1 15 км слаб. дождь {гроза} 10/10 1000 м
[Cu Sc]
+13.2 +12.5 96 +13 +13 1016.1 996.1 +19.3 10
Ю 2 н/о н/о +12.5 +12.5 100 +11 +11 1016.8 996.9
Ю 1 н/о н/о +12.1 +12.1 100 +12 +12 1017.0 997.1
Ю 1 н/о н/о +12.0 +12.0 100 +12 +12 1016.7 996.8
Ю 2 н/о н/о +11.4 +11.4 100 +10 +10 1016.6 996.7
Ю 1 н/о н/о +11.7 +11.7 100 +11 +11 1016.8 996.9
ЮВ 1 н/о н/о +11.4 +11.4 100 +11 +11 1016.2 996.2 0.1
ЮВ 1 н/о н/о +11.2 +11.2 100 +11 +11 1015.9 995.9
Ю 1 н/о н/о +11.0 +11.0 100 +11 +11 1015.5 995.6
Ю 1 н/о н/о +11.0 +11.0 100 +11 +11 1015.5 995.6
Ю 1 н/о н/о +11.8 +11.8 100 +11 +11 1015.8 995.8
ЮВ 1 н/о н/о +11.2 +11.2 100 +11 +11 1015.5 995.5
Ю 1 10 км 10/3 1000 м
[Sc Ac As]
+12.5 +12.0 97 +12 +14 1015.7 995.7 +11.0 0.3 9.9
штиль 0 20 км 10/3 1000 м
[Sc Ac As]
+13.3 +12.8 97 +13 +16 1015.7 995.7
ЮЗ 1 20 км 10/1 1000 м
[Cu med, cong Ac As]
+14.0 +9.5 74 +14 +19 1015.6 995.7
Ю 1 20 км 10/1 1000 м
[Cu med, cong Ac As]
+14.9 +11.2 79 +15 +21 1015.5 995.7
Ю 2 20 км 10/1 1000 м
[Cu med, cong Ac As]
+15.7 +9.7 67 +16 +21 1014.9 995.2
З 2 20 км 10/1 1000 м
[Cu med, cong Ac As]
+15.0 +9.4 69 +15 +20 1015.3 995.5
ЮВ 1 20 км 9/5 1000 м
[Cu Sc Ac trans]
+15.8 +9.2 65 +17 +22 1014.5 994.8
Ю 2 20 км 9/5 1000 м
[Cu Sc Ac trans]
+16.9 +9.4 61 +17 +21 1014.0 994.4
Ю 2 20 км 9/5 1000 м
[Cu Sc Ac trans]
+17.0 +8.8 58 +17 +20 1013.8 994.2
З 3 20 км 9/6 1000 м
[Cu Sc Ac trans]
+16.4 +8.5 60 +16 +17 1013.8 994.1
З 3 20 км 8/5 1000 м
[Cu Sc Ac trans]
+14.8 +9.5 71 +14 +14 1013.9 994.1
З 4 20 км 9/5 1000 м
[Cu Sc Ac trans]
+15.9 +9.0 64 +15 +16 1013.7 994.0
С 1 20 км 6/5 1000 м
[Cu Sc Ac trans]
+14.4 +9.4 72 +15 +15 1014.4 994.5 +17.5
Ю 1 н/о н/о +12.8 +10.7 87 +13 +13 1015.1 995.3
Ю 1 н/о н/о +12.4 +11.4 94 +12 +12 1015.6 995.7
С 1 н/о н/о +13.0 +11.1 88 +13 +13 1015.8 995.9
ЮВ 1 н/о н/о +10.4 +10.4 100 +10 +10 1015.9 995.9
ЮВ 1 н/о н/о +12.4 +12.4 100 +12 +12 1015.7 995.8
ЮВ 1 н/о н/о +10.7 +10.7 100 +10 +10 1015.9 995.9
Ю 1 н/о н/о +10.5 +10.5 100 +10 +10 1015.7 995.7
СЗ 1 н/о н/о +10.6 +10.6 100 +10 +10 1015.6 995.6
СЗ 2 н/о н/о +10.8 +9.1 89 +9 +9 1015.5 995.6
З 1 н/о н/о +11.9 +10.7 92 +12 +12 1015.5 995.6
З 1 н/о н/о +11.1 +9.7 91 +11 +11 1015.5 995.6
З 1 15 км 9/0
[Ac As]
+12.6 +11.1 91 +13 +15 1015.6 995.6 +10.1
З 1 15 км 9/5 1000 м
[Cu Sc Ac trans]
+13.1 +9.5 79 +13 +16 1015.8 995.8
З 1 15 км 8/5 1000 м
[Cu Sc Ac trans]
+13.8 +9.8 77 +14 +19 1015.6 995.6
СЗ 2 20 км 10/10 1000 м
[Cu Sc]
+14.0 +9.7 75 +14 +14 1015.7 995.7
С 3 20 км 8/5 1000 м
[Cu Sc Ac trans]
+16.0 +10.0 68 +16 +21 1015.1 995.4
СЗ 4 20 км 9/5 1000 м
[Cu Sc Ac trans]
+14.6 +10.0 74 +13 +17 1015.5 995.7
С 3 20 км 9/5 1000 м
[Cu Sc Ac trans]
+16.1 +10.8 71 +16 +20 1015.0 995.3
С 3 20 км 10/4 1000 м
[Sc Ac As]
+15.8 +11.7 77 +15 +18 1014.9 995.2
С 3 20 км 10/4 1000 м
[Sc Ac As]
+15.4 +12.0 80 +15 +16 1014.9 995.1
С 1 15 км 10/0
[Ac As]
+14.8 +12.1 84 +15 +17 1014.9 995.1
Ю 1 10 км 10/4 1000 м
[Sc Ac As]
+13.3 +12.3 94 +13 +14 1014.9 995.0
С 1 10 км 10/6 1000 м
[Sc Ac As]
+13.6 +12.5 93 +14 +14 1015.0 995.1
ЮЗ 1 10 км 10/4 1000 м
[Sc Ac As]
+13.4 +12.3 93 +14 +14 1014.7 994.8 +16.6
З 2 н/о н/о +13.7 +13.7 100 +13 +13 1014.7 994.9
З 1 н/о н/о +13.5 +13.5 100 +14 +14 1014.7 994.9
З 2 н/о н/о +12.3 +12.3 100 +11 +11 1014.5 994.7
З 2 н/о н/о +12.4 +12.4 100 +11 +11 1014.3 994.4
штиль 0 н/о н/о +12.5 +12.5 100 +12 +12 1014.8 995.0
Ю 2 н/о н/о +10.9 +10.9 100 +9 +9 1013.8 993.9
Ю 1 н/о н/о +11.5 +11.5 100 +11 +11 1013.4 993.5
ЮЗ 1 н/о н/о +10.7 +10.7 100 +10 +10 1013.0 993.1
штиль 0 н/о н/о +10.9 +10.9 100 +10 +10 1012.7 992.8
Ю 1 н/о н/о +11.9 +11.9 100 +12 +12 1013.0 993.1
Ю 2 н/о н/о +10.9 +10.9 100 +9 +9 1012.8 992.9
Ю 1 20 км {дождь} 10/10 1000 м
[Cu Sc]
+12.6 +12.1 97 +12 +12 1012.9 993.0 +10.6 2 1.6
Ю 2 20 км 9/9 1000 м
[Cu Sc]
+13.0 +12.5 97 +12 +13 1012.9 993.0
З 3 20 км 6/5 1000 м
[Cu Sc Ac trans]
+15.7 +12.7 82 +15 +20 1012.6 992.9
СЗ 2 20 км 9/8 1000 м
[Cu Sc Ac trans]
+17.3 +10.8 66 +18 +20 1012.0 992.4
С 6
{11}
15 км гроза, ливневой дождь 10/10 1000 м
[Cb cap]
+17.8 +11.5 67 +17 +17 1010.9 991.4
З 2 20 км 8/6 1000 м
[Cu Sc Ac trans]
+17.6 +9.8 60 +18 +23 1011.3 991.8
СЗ 2
{11}
15 км в посл. час гроза {ливн. осадки} 10/10 1000 м
[Cu Sc]
+13.8 +12.3 91 +13 +13 1012.2 992.4 1
З 3 15 км 9/9 1000 м
[Cu Sc]
+13.7 +12.0 89 +12 +14 1012.3 992.5
З 4 15 км 9/9 1000 м
[Cu Sc]
+15.2 +11.8 80 +14 +15 1012.0 992.3
ЮЗ 3 20 км 5/4 1000 м
[Cu Sc Ac trans]
+16.3 +11.5 73 +16 +19 1011.8 992.1
З 4 20 км 3/3 1000 м
[Cu med, cong]
+16.1 +9.8 66 +15 +16 1011.2 991.5
З 4 20 км 5/4 1000 м
[Cu Sc Ac trans]
+16.3 +10.6 69 +16 +17 1011.3 991.6
ЮЗ 2 20 км 4/4 1000 м
[Cu Sc]
+14.6 +10.0 74 +14 +14 1011.0 991.3 +19.1 1
Ю 3 н/о н/о +12.3 +12.3 100 +11 +11 1011.2 991.4
ЮЗ 1 н/о н/о +12.0 +11.0 94 +12 +12 1011.8 992.0
ЮЗ 2 н/о н/о +11.6 +11.6 100 +10 +10 1011.8 992.0
штиль 0 н/о н/о +9.2 +6.1 81 +8 +8 1011.6 991.5
З 1 н/о н/о +10.5 +10.5 100 +10 +10 1011.8 991.9
штиль 0 н/о н/о +7.8 +4.8 81 +7 +7 1011.3 991.2
В 1 20 км ясно +13.0 +10.3 84 +13 +20 1009.9 990.0 +5.3 1.2
В 1 20 км 1/1 1000 м
[Cu med, cong]
+15.6 +10.9 74 +16 +27 1009.7 989.8
В 1 20 км 3/1 1000 м
[Cu med, cong Ci sp]
+18.0 +10.8 63 +19 +33 опасность
простуды
1009.5 989.5
З 3 20 км 9/9 1000 м
[Cu Sc]
+17.2 +9.8 62 +17 +19 1009.2 989.6
З 6 20 км 9/9 1000 м
[Cu Sc]
+17.0 +9.7 62 +16 +17 1009.3 989.7
З 6 20 км 9/9 1000 м
[Cu Sc]
+18.0 +10.0 59 +17 +18 1009.1 989.5
З 3 20 км 9/9 1000 м
[Cu Sc]
+16.9 +9.4 61 +17 +18 1009.0 989.4
Ю 3 20 км 4/3 1000 м
[Cu med, cong Ci sp]
+18.4 +10.8 61 +19 +27 1009.0 989.6
ЮЗ 2 20 км 4/4 1000 м
[Cu med, cong]
+20.0 +11.5 58 +22 +28 комфорт 1008.0 988.6
ЮЗ 2 20 км 4/4 1000 м
[Cu med, cong]
+19.2 +9.7 54 +21 +24 комфорт 1006.8 987.4
ЮВ 1 20 км 9/9 1000 м
[Cu Sc]
+18.7 +10.6 59 +20 +20 1005.6 987.2
Ю 4 20 км 6/4 1000 м
[Cu med, cong Ci sp]
+19.4 +10.3 56 +20 +22 1006.4 987.0
В 1 20 км 9/9 1000 м
[Cu Sc]
+16.9 +10.2 65 +18 +18 1007.7 988.0 +20.4
н/о +14.2
н/о +13.8
н/о +13.7
н/о +12.4
н/о +13.2
Ю 1 н/о н/о +12.0 1
н/о +11.8
н/о +10.5
н/о +10.0
н/о +11.1
ЮВ 2 20 км 3/1 1000 м
[Cu med, cong Ci sp]
+15.5 +13.9 90 +15 +20 1008.4 988.8 +9.8 0.9 0.9
В 2 20 км 4/0
[Ci sp]
+18.0 +13.0 73 +19 +28 1008.3 988.8
В 2 30 км 8/0
[Cs]
+20.4 +12.7 61 +23 +35 комфорт 1008.2 988.9
ЮВ 2 30 км 4/1 1000 м
[Cu hum Ci sp]
+22.0 +13.0 57 +25 +39 комфорт 1007.9 988.7
В 2 30 км 3/1 1000 м
[Cu med, cong Ci sp]
+24.3 +12.5 48 +26 +43 жарко 1007.5 988.4
ЮВ 3 50 км 5/3 1000 м
[Cu med, cong Ci sp]
+25.2 +10.6 40 +26 +37 жарко 1006.9 987.9
Ю 6
{11}
50 км 8/5 1000 м
[Cu Sc Ci sp]
+25.4 +10.6 39 +26 +29 жарко 1006.6 987.6
Ю 5 50 км 5/4 1000 м
[Cu Sc Ci sp]
+26.2 +11.1 39 +27 +32 жарко 1005.9 987.0
Ю 4
{11}
50 км 6/3 1000 м
[Cu med, cong Ci sp]
+26.7 +10.8 37 +28 +32 жарко 1005.5 986.7
Ю 4
{11}
50 км 9/4 1000 м
[Cu med, cong Cs]
+27.0 +10.8 36 +28 +30 жарко 1005.0 986.2
Ю 2 50 км 9/1 1000 м
[Cu med, cong Ac trans Cs]
+25.0 +12.0 44 +27 +28 жарко 1005.3 986.3
ЮЗ 1 50 км 9/1 1000 м
[Cu med, cong Ac trans Cs]
+24.4 +10.9 43 +26 +26 жарко 1005.6 986.6
Ю 3
{11}
50 км 8/0
[Ac trans Cs]
+21.8 +10.3 48 +24 +24 комфорт 1006.0 986.8 +27.1
ЮВ 3 20 км 8/8 1000 м
[Cu Sc]
+21.0 +16.3 75 +25 +26 комфорт 1005.8 986.5 +17.1
Ю 6 25 км 5/5 1000 м
[Cu Sc]
+23.0 +8.6 40 +24 +26 комфорт 1005.3 986.2
Ю 5 25 км 6/6 1000 м
[Cu Sc]
+23.4 +7.6 36 +24 +27 комфорт 1005.1 986.0
Ю 4 25 км 6/6 1000 м
[Cu Sc]
+23.9 +7.6 35 +24 +29 комфорт 1004.6 985.5
В 3 25 км 8/8 1000 м
[Cu Sc]
+25.0 +8.1 34 +25 +28 комфорт 1004.9 985.9
Ю 3 25 км 9/9 1000 м
[Cu Sc]
+25.4 +9.5 37 +26 +28 жарко 1004.8 985.8
Ю 2 25 км 9/9 1000 м
[Cu Sc]
+25.2 +11.7 43 +27 +28 жарко 1004.7 985.7
Ю 3 25 км 9/8 1000 м
[Cu Sc Ac lent]
+24.0 +11.2 45 +25 +27 комфорт 1005.1 986.0
ЮВ 1 25 км 9/8 1000 м
[Cu Sc Ac lent]
+23.4 +10.9 45 +26 +27 жарко 1004.7 985.8
ЮВ 1 25 км 9/9 1000 м
[Cu Sc]
+22.6 +11.5 49 +25 +26 комфорт 1004.5 985.4
ЮВ 1 25 км 9/9 1000 м
[Cu Sc]
+21.4 +10.9 51 +23 +24 комфорт 1004.8 985.7
ЮВ 1 25 км 9/9 1000 м
[Cu Sc]
+20.9 +14.0 65 +25 +25 комфорт 1005.4 986.1
ЮВ 1 25 км 9/9 1000 м
[Cu Sc]
+20.1 +13.6 66 +23 +23 комфорт 1005.7 986.4 +25.8
штиль 0 н/о н/о +18.9 +13.9 73 +20 +20 1007.0 987.7
В 1 н/о н/о +18.5 +14.4 77 +20 +20 1007.4 988.1
СВ 1 н/о н/о +18.2 +13.9 76 +20 +20 1007.6 988.3
В 1 н/о н/о +17.6 +14.3 81 +19 +19 1007.4 988.1
В 1 н/о н/о +16.3 +13.8 85 +17 +17 1007.5 988.1
штиль 0 н/о н/о +15.4 +14.2 93 +15 +15 1007.0 987.6
Местоположение метеостанции Крушевац (Сербия): широта 43.57 долгота 21.35 высота над уровнем моря 167 м.
В архиве по умолчанию представлена погода в Крушеваце за последнюю неделю. Архивные данные за месяц целиком и за предыдущие месяцы, начиная с января 2011 года, Вы можете получить, выбрав интересующий диапазон дат из раскрывающегося списка и нажав кнопку "Найти!".
*Определитесь, кто Вы:
Внимание! Время в таблицах - всемирное. Для получения местного времени необходимо прибавить поправку, которая равна 1 ч.
Смотрите также архив погоды в соседних городах и на ближайших метеорологических станциях:
Партнеры нашего сайта:      
Пояснения к столбцам:
  • Ветер - указаны скорость ветра в м/с - средняя за 10 мин, порывы в срок и между сроками (в фигурных скобках) и направление, откуда дует ветер: С - северный,
  • СВ - северо-восточный, В - восточный, ЮВ - юго-восточный, Ю - южный, ЮЗ - юго-западный, З - западный, СЗ - северо-западный.
  • Видимость - горизонтальная дальность видимости в метрах или километрах. При видимости от 1 до 10 км при отсутствии осадков обычно наблюдается дымка, при ухудшении видимости до 1 км и менее - туман. В сухую погоду видимость может ухудшаться дымом, пылью или мглою.
  • Явления - указаны атмосферные явления, наблюдавшиеся в срок или в последний час перед сроком; фигурными скобками обозначены явления, наблюдавшиеся между сроками (за 1-3 часа до срока); квадратными скобками обозначены град или гололедные отложения с указанием их диаметра в мм.
  • Облачность - указаны через наклонную черту общая и нижняя облачность в баллах и высота нижней границы облаков в метрах; квадратными скобками обозначены формы облаков: Ci - перистые, Cs - перисто-слоистые, Cc - перисто-кучевые, Ac - высококучевые, As - высокослоистые, Sc - слоисто-кучевые, Ns - слоисто-дождевые, Cu - кучевые, Cb - кучево-дождевые. Подробнее классификацию облаков см. в Атласе облаков (PDF).
  • T - Температура воздуха - температура, измеренная на высоте 2 м над землей.
  • Td - Температура точки росы - температура, при понижении до которой содержащийся в воздухе водяной пар достигнет насыщения.
  • f - Относительная влажность воздуха - влажноcть воздуха, измеренная на высоте 2 м над землей.
  • Te - Эффективная температура - температура, которую ощущает одетый по сезону человек в тени. Характеристика душности погоды. При расчете учитывается влияние влажности воздуха и скорости ветра на теплоощущения человека.
  • Tes - Эффективная температура на солнце - температура, которую ощущает человек, с поправкой на солнечный нагрев. Характеристика знойности погоды. Зависит от высоты солнца над горизонтом, облачности и скорости ветра. Ночью, в пасмурную погоду, а также при ветре 12 м/с и более поправка равна нулю.
  • P - Атмосферное давление - приведенное к уровню моря атмосферное давление.
  • Po - Атмосферное давление - измеренное на уровне метеостанции атмосферное давление.
  • Tmin - Минимальная температура - минимум температуры воздуха на высоте 2 м над землей.
  • Tmax - Максимальная температура - максимум температуры воздуха на высоте 2 м над землей.
  • R - Количество осадков - Количество выпавших осадков за период времени, мм. При наведении курсора мыши на число - период времени, за который выпало указанное количество осадков.
  • R24 - Количество осадков - Количество выпавших осадков за 24 часа, мм.
  • S - Снежный покров - Высота снежного покрова, см. При наведении курсора мыши на число - состояние снежного покрова и степень покрытия местности в баллах.